Flag for Japan Weather past 2 weeks in Kawasaki, Japan

Now
39 °F

Passing clouds.


Feels Like: 34 °F
Forecast: 38 / 50 °F
Wind: 7 mph from Northwest

Location: Tokyo International Airport

Current Time: Jan 31, 2015 at 7:32:36 AM

Latest Report: Jan 31, 2015 at 7:00 AM


Visibility: N/A

Pressure: 29.80 "Hg

Humidity: 93%

Dew point: 37 °F

Location of KawasakiLocation

Historic Weather in Kawasaki — Graph

°F

Kawasaki temperature yesterday

Maximum temperature yesterday: 43 °F (at 9:30 PM)
Minimum temperature yesterday: 36 °F (at 6:00 AM)
Average temperature yesterday: 38 °F

Past Weeks' High & Low Weather Summary

 TemperatureHumidityPressure
High57 °F (Jan 26, 7:30 PM)94% (Jan 16, 11:30 PM)30.42 "Hg (Jan 16, 11:30 PM)
Low34 °F (Jan 19, 5:00 AM)21% (Jan 18, 11:00 AM)29.50 "Hg (Jan 23, 1:00 AM)
Average44 °F61%30.01 "Hg
* Reported Jan 16 6:00 AM — Jan 31 6:00 AM, Kawasaki, Weather by CustomWeather, © 2014

Note: Actual official high and low records may vary slightly from our data, if they occured in-between our weather recording intervals... More about our weather records

Advertising

Kawasaki weather history for previous 24 hours

 ConditionsComfort  
Time TempWeatherWind HumidityBarometerVisibility
6:00 AM
Jan 31
39 °FPassing clouds.6 mph87%29.77 "HgN/A
5:30 AM37 °FPassing clouds.7 mph93%29.74 "HgN/A
5:00 AM37 °FPassing clouds.8 mph87%29.74 "HgN/A
4:30 AM37 °FPassing clouds.5 mph87%29.74 "HgN/A
4:00 AM37 °FPassing clouds.5 mph93%29.74 "HgN/A
3:30 AM37 °FPassing clouds.5 mph93%29.74 "HgN/A
3:00 AM37 °FPassing clouds.5 mph93%29.74 "HgN/A
2:30 AM37 °FPassing clouds.3 mph93%29.74 "HgN/A
2:00 AM37 °FPassing clouds.5 mph93%29.74 "HgN/A
1:30 AM37 °FPassing clouds.7 mph93%29.74 "HgN/A
1:00 AM39 °FPassing clouds.8 mph87%29.74 "HgN/A
12:30 AM41 °FPassing clouds.6 mph87%29.74 "HgN/A
12:00 AM39 °FPassing clouds.7 mph93%29.74 "HgN/A
11:30 PM
Jan 30
41 °FPassing clouds.5 mph81%29.74 "HgN/A
11:00 PM43 °FPassing clouds.10 mph81%29.74 "HgN/A
10:30 PM43 °FPassing clouds.12 mph81%29.74 "HgN/A
10:00 PM43 °FPartly cloudy.15 mph81%29.74 "HgN/A
9:30 PM43 °FPartly cloudy.15 mph81%29.74 "HgN/A
9:00 PM41 °FPassing clouds.15 mph87%29.77 "HgN/A
8:30 PM41 °FPassing clouds.14 mph87%29.77 "HgN/A
8:00 PM41 °FPartly cloudy.16 mph87%29.77 "HgN/A
7:50 PM41 °FPartly cloudy.14 mph87%29.77 "HgN/A
7:30 PM39 °FLight rain. Passing clouds.14 mph93%29.80 "HgN/A
7:00 PM39 °FLight rain. Passing clouds.16 mph93%29.80 "Hg4 mi
6:30 PM39 °FLight rain. Passing clouds.18 mph87%29.83 "Hg4 mi
6:00 PM37 °FLight rain. Fog.13 mph93%29.83 "Hg3 mi
5:30 PM39 °FLight rain. Partly cloudy.12 mph87%29.83 "Hg4 mi
5:00 PM37 °FLight rain. Fog.13 mph93%29.83 "Hg3 mi
4:30 PM37 °FLight rain. Fog.16 mph93%29.86 "Hg3 mi
4:00 PM37 °FLight rain. Fog.16 mph93%29.86 "Hg2 mi
3:30 PM37 °FRain. Fog.15 mph93%29.89 "Hg3 mi
3:00 PM37 °FLight rain. Fog.12 mph93%29.89 "Hg3 mi
2:48 PM37 °FLight rain. Fog.12 mph87%29.92 "Hg3 mi
2:30 PM37 °FLight rain. Partly sunny.12 mph87%29.92 "Hg4 mi
2:00 PM37 °FLight rain. Partly sunny.15 mph87%29.92 "Hg4 mi
1:30 PM37 °FLight rain. Partly sunny.15 mph87%29.95 "Hg4 mi
1:00 PM37 °FLight rain. Partly sunny.16 mph87%29.95 "Hg4 mi
12:30 PM37 °FRain. Fog.18 mph93%29.98 "Hg3 mi
12:00 PM36 °FRain. Fog.13 mph93%30.04 "Hg3 mi
11:30 AM36 °FRain. Fog.16 mph93%30.07 "Hg3 mi
11:00 AM36 °FRain. Fog.16 mph93%30.07 "Hg4 mi
10:30 AM37 °FRain. Fog.15 mph87%30.09 "Hg3 mi
10:00 AM36 °FLight rain. Fog.18 mph93%30.12 "Hg4 mi
9:30 AM36 °FLight rain. Fog.17 mph93%30.15 "Hg3 mi
9:00 AM36 °FLight rain. Fog.18 mph93%30.15 "Hg3 mi
8:30 AM36 °FLight rain. Fog.15 mph93%30.18 "Hg3 mi
8:00 AM36 °FLight snow. Fog.14 mph93%30.18 "Hg2 mi
7:30 AM36 °FLight rain. Fog.14 mph93%30.18 "Hg2 mi
7:00 AM36 °FLight rain. Fog.15 mph93%30.18 "Hg2 mi
Weather by CustomWeather, © 2014

See weather overviewHow to use our weather pages